Weather in Kievskoe

Russia / Krasnodar Krai     45°02′17″N   37°53′22″E
temp.,
°C
wind,
m/s
gust,
m/s
humid.,
%
clouds,
%
prec.,
mm/h
press.,
hPa
HPBL,
m
19 april, mon
mon1900:00+10ssw1195100 0.1 101611
03:00+11w2297100 1.2 101559
06:00+12wsw1199100 0.9 101433
09:00+13w1298100 2.6 1014246
12:00+14sw2689100 1.8 1014528
15:00+14sw3889100 2.8 1014499
18:00+14wsw1289100 0.1 1013291
21:00+12ene2296100 0.1 101245
20 april, tue
tue2000:00+12nne2599100 2.6 1009244
03:00+12e4999100 11.4 1006304
06:00+13se479882 1.1 1005331
09:00+13wsw4119496 2.6 1006588
12:00+17sw916620 0.1 10061236
15:00+15sw1118680 0.1 10071130
18:00+12sw8128277 0.0 1009946
21:00+10ssw6984100 0.1 1013491
21 april, wed
wed2100:00+10ssw598614 0.1 1014411
03:00+9sw488795 0.1 1015349
06:00+10sw3788100 0.0 1016457
09:00+12wsw5774100 0.0 1017851
12:00+14sw566383 0.2 10181410
15:00+15wsw556158 0.3 10181400
18:00+14wsw34685 0.0 1019434
21:00+8ssw34905 0.1 102166
22 april, thu
thu2200:00+8ssw339443 0.0 102148
03:00+7sw229496 0.0 102123
06:00+7s119352 0.0 102212
09:00+13sse12721 0.0 1023568
12:00+17wnw125360 0.1 10231588
15:00+17w345246 1.3 10221749
18:00+14wnw45680 0.1 1023387
21:00+9w22820 0.1 102424
23 april, fri
fri2300:00+8ssw22820 0.0 102410
03:00+8ssw11810 0.0 102310
06:00+7s11830 0.0 102310
09:00+13se2269100 0.0 1023388
12:00+18ssw0250100 0.0 10221517
15:00+19w234164 0.0 10211911
18:00+17wnw23590 0.0 102086
21:00+10nw1176100 0.0 102111